ARSAT 1

Last updated on Sat Jun 14 2025 00:02:46 GMT+0000 (Coordinated Universal Time)

1 40272U 14062B 25164.44676513 -.00000244 00000+0 00000+0 0 9991 2 40272 0.0128 349.2787 0002118 89.4885 272.2617 1.00271697 38913
UTC large
Height (km)
Speed (km/s)
/
Latitude / Longitude
Inclination (degrees)
Orbital Period (minutes)
Azimuth
Elevation
Range (km)
Doppler Factor

Next 0 passes for location: London (51.5072 / 0.1276)

Sorry there are no passes over London.